Regional Weather Roundup
Issued by NWS

Home | Current Version | Previous Version | Graphics & Text | Print | Product List | Glossary On
Versions: 1 2 3 4 5 6 7 8 9 10 11 12 13 14 15 16 17 18 19 20 21 22 23 24 25 26 27 28 29 30 31 32 33 34 35 36 37 38 39 40 41 42 43 44 45 46 47 48 49 50
000
ASUS45 KPSR 312010
RWRAZ

ARIZONA HOURLY REGIONAL WEATHER ROUNDUP
NATIONAL WEATHER SERVICE PHOENIX AZ
100 PM MST TUE MAY 31 2016

NOTE: FAIR INDICATES FEW OR NO CLOUDS BELOW 12,000 FEET WITH NO
SIGNIFICANT WEATHER AND/OR OBSTRUCTIONS TO VISIBILITY.

AZZ001>003-036-312100-
NORTHWEST ARIZONA

CITY           SKY/WX    TMP DP  RH WIND       PRES   REMARKS
BULLHEAD CITY  MOSUNNY  102  32   8 NW12      29.71F
KINGMAN        MOSUNNY   92  30  11 N7G25     29.90F
$$

AZZ004>008-015-016-018-312100-
NORTH CENTRAL ARIZONA

CITY           SKY/WX    TMP DP  RH WIND       PRES   REMARKS
GRAND CANYON   MOSUNNY   78  23  13 VRB5G18   30.09F
WILLIAMS       MOSUNNY   72  25  17 VRB3G14   30.17F
PRESCOTT       MOSUNNY   81  18   9 S9        30.00F
FLAGSTAFF      MOSUNNY   71  22  15 SW13      30.11F
PAYSON         MOSUNNY   81  18   9 W8        30.00F
PAGE           SUNNY     83  29  14 CALM      29.94F
$$

AZZ009>014-017-312100-
NORTHEAST ARIZONA

CITY           SKY/WX    TMP DP  RH WIND       PRES   REMARKS
WINSLOW        SUNNY     84  22  10 S7        29.97F
SAINT JOHNS    MOSUNNY   82  24  12 VRB7      29.98F
WINDOW ROCK    PTSUNNY   79  24  13 W12G21    30.06F
SHOW LOW       PTSUNNY   72  19  14 CALM      30.06S
$$

AZZ023-312100-
GREATER PHOENIX AREA

CITY           SKY/WX    TMP DP  RH WIND       PRES   REMARKS
PHOENIX        PTSUNNY   96  25   8 W14G21    29.75F
BUCKEYE        SUNNY     93  23   8 S10       29.79F
GLENDALE       MOSUNNY   93  18   6 S6        29.78F
LUKE AFB       MOSUNNY   94  22   7 VRB2      29.75F
DEER VALLEY    SUNNY     93  23   8 SW10G20   29.77F
SCOTTSDALE     SUNNY     94  22   7 MISG      29.79F
MESA-FALCON    MOSUNNY  N/A N/A N/A MISG      29.75F
MESA-GATEWAY   MOSUNNY   91  23   8 W14G20    29.78F
CHANDLER       MOSUNNY   93  25   8 SW14      29.77F
$$

AZZ027-028-312100-
SOUTHWEST MARICOPA COUNTY AND PINAL COUNTY

CITY           SKY/WX    TMP DP  RH WIND       PRES   REMARKS
CASA GRANDE    SUNNY     91  30  11 W12G17    29.80F
GILA BEND      MOSUNNY   95  25   8 SW7       29.75F
$$

AZZ503-504-507>509-312100-
SOUTHEAST ARIZONA

CITY           SKY/WX    TMP DP  RH WIND       PRES   REMARKS
TUCSON         SUNNY     88  19   8 S3        29.85F
DAVIS-MONTHAN  MOSUNNY   88  20   8 SW12      29.83F
RYAN FIELD     SUNNY     88  23   9 NE6       29.84F
NOGALES        SUNNY     84  15   7 MISG      29.91F
SIERRA VISTA   MOSUNNY   82  18   9 E6G21     29.96F
DOUGLAS        MOSUNNY   83  28  13 CALM      29.92F
SAFFORD        MOSUNNY   89  31  12 SW12      29.83F
$$

AZZ020-021-025-026-031-312100-
SOUTHWEST ARIZONA

CITY           SKY/WX    TMP DP  RH WIND       PRES   REMARKS
YUMA           SUNNY     95  43  16 S9        29.74F
$$

CAZ031-033-041-043-047-048-061-312100-
SOUTHERN CALIFORNIA

CITY           SKY/WX    TMP DP  RH WIND       PRES   REMARKS
DOWNTOWN L.A.  MOSUNNY   72  58  61 VRB3      29.87F HAZE
L.A. AIRPORT   PTSUNNY   68  57  68 W9        29.88F HAZE
SAN DIEGO      CLOUDY    67  56  67 SW8       29.91S
BURBANK        SUNNY     72  57  59 S13       29.86F HAZE
ONTARIO        MOSUNNY   74  55  51 W8        29.86F
RIVERSIDE      MOSUNNY   77  55  46 W9        29.85F
PALM SPRINGS   SUNNY     95  49  20 SE9       29.74F
EL CENTRO NAS  MOSUNNY   97  44  16 NE6       29.73F
IMPERIAL       SUNNY     98  44  15 VRB7      29.71F
BLYTHE         SUNNY     98  38  12 VRB5      29.74F
NEEDLES        SUNNY    102  31   8 VRB3      29.74F
$$

NVZ020-UTZ003-312100-
SOUTHERN NEVADA-UTAH

CITY           SKY/WX    TMP DP  RH WIND       PRES   REMARKS
LAS VEGAS      MOSUNNY   94  33  11 W6        29.81F
SALT LAKE CITY MOSUNNY   75  35  23 N14       30.07F
$$

NMZ009-TXZ055-312100-
NEW MEXICO-WEST TEXAS

CITY           SKY/WX    TMP DP  RH WIND       PRES   REMARKS
ALBUQUERQUE    CLOUDY    74  40  29 SE20      29.99S
EL PASO        MOSUNNY   85  41  21 SW12G18   29.89F
$$


........................KEY........................
SKY/WX - SKY CONDITION/WEATHER
TMP    - TEMPERATURE IN FAHRENHEIT
DP     - DEW POINT IN FAHRENHEIT
RH     - RELATIVE HUMIDITY IN PERCENT
WIND   - DIRECTION AND SPEED IN MILES PER HOUR (MPH)
VRB    - VARIABLE WIND DIRECTION
PRES   - MEAN SEA LEVEL PRESSURE IN INCHES OF MERCURY
         F - FALLING PRESSURE   R - RISING PRESSURE
         S - STEADY PRESSURE
VSB    - VISIBILITY IN MILES
HX     - HEAT INDEX IN FAHRENHEIT
WCI    - WIND CHILL INDEX IN FAHRENHEIT
TC     - TEMPERATURE IN CELSIUS WHICH IS ALSO KNOWN AS
         TEMPERATURE IN CENTIGRADE
AFB    - AIR FORCE BASE
         LUKE AFB IS LUKE AIR FORCE BASE
         DAVIS-MONTHAN IS DAVIS-MONTHAN AIR FORCE BASE
NAS    - NAVAL AIR STATION
         EL CENTRO NAS IS EL CENTRO NAVAL AIR STATION
N/A    - NOT AVAILABLE




USA.gov is the U.S. government's official web portal to all federal, state and local government web resources and services.